Regional Weather Roundup
Issued by NWS Kansas City/Pleasant Hill, MO

Home | Current Version | Previous Version | Graphics & Text | Print | Product List | Glossary Off
Versions: 1 2 3 4 5 6 7 8 9 10 11 12 13 14 15 16 17 18 19 20 21 22 23 24 25 26 27 28 29 30 31 32 33 34 35 36 37 38 39 40 41 42 43 44 45 46 47 48 49 50

156
ASUS43 KEAX 042010
RWREAX

WEATHER ROUNDUP FOR EASTERN KANSAS AND NORTHWEST MISSOURI
NATIONAL WEATHER SERVICE KANSAS CITY/PLEASANT HILL MO
300 PM CDT WED MAY 04 2016

KSZ040-057-103>105-MOZ028-029-037-043-042100-
...KANSAS CITY METROPOLITAN AREA...

CITY           SKY/WX    TMP DP  RH WIND       PRES   REMARKS
K.C. INTL      SUNNY     68  39  34 NW14G23   29.99S
K.C. DOWNTOWN  SUNNY     71  39  31 NW12G23   29.97S
LEES SUMMIT    SUNNY     69  39  33 N17G25    29.98S
OLATHE - IXD   SUNNY     69  40  34 NW16G26   30.00S
OLATHE - OJC   SUNNY     69  36  29 N10G24    29.99S
LAWRENCE       SUNNY     70  40  33 N17G25    30.00F

$$

MOZ001>008-011>017-020>025-030>033-038>040-044>046-053-054-042100-
...NORTHERN AND CENTRAL MISSOURI...

CITY           SKY/WX    TMP DP  RH WIND       PRES   REMARKS
ST. JOSEPH     SUNNY     70  36  28 N17G29    30.00S
MOSBY            N/A     68  36  30 NW15G24   29.98S
WARRENSBURG    SUNNY     68  34  28 NW16G25   29.95S
WHITEMAN AFB   MOSUNNY   69  40  34 N15G29    29.94S
CLINTON        SUNNY     70  41  35 NW15      29.96R
SEDALIA        SUNNY     70  38  31 N23G30    29.95S
WARSAW         NOT AVBL
CHILLICOTHE      N/A     68  40  35 N10G23    29.96S
KIRKSVILLE     SUNNY     65  36  34 N17G28    29.94S

$$

MOZ041-047>049-056>058-063>065-088>090-097-042100-
...EASTERN AND SOUTHERN MISSOURI...

CITY           SKY/WX    TMP DP  RH WIND       PRES   REMARKS
ST. LOUIS INTL MOSUNNY   68  40  35 N16G26    29.84R
SPIRIT OF STL  MOSUNNY   68  39  34 NW18G26   29.83S
COLUMBIA       MOSUNNY   68  36  30 N17G29    29.90S
JEFFERSON CITY PTSUNNY   69  36  29 NW13      29.89S
ROLLA          SUNNY     67  41  38 N18G25    29.87R
OSAGE BEACH    SUNNY     70  37  30 NW15G24   29.91S
SPRINGFIELD    SUNNY     71  39  31 NW21      29.92S
BRANSON        SUNNY     72  37  28 NW21G28   29.91S
JOPLIN         SUNNY     71  39  31 N18G28    29.97S
WEST PLAINS    SUNNY     73  40  30 N17G25    29.86S

$$

IAZ060-094-KSZ022-034>040-054-083-096-NEZ052-066-093-042100-
...KANSAS...SOUTHEAST NEBRASKA AND IOWA...

CITY           SKY/WX    TMP DP  RH WIND       PRES   REMARKS
TOPEKA         SUNNY     70  39  32 N17G26    30.01F
MANHATTAN      SUNNY     71  35  26 N15       30.04F
EMPORIA        SUNNY     71  36  27 N10G20    30.02S
CHANUTE        SUNNY     73  38  27 NW14G22   30.00S
WICHITA        SUNNY     75  34  22 N16G26    30.04F
OMAHA          MOSUNNY   68  39  34 N18G26    30.02F
LINCOLN        SUNNY     71  36  27 N18       30.06F
FALLS CITY     SUNNY     69  40  34 N14G21    30.01F
LAMONI         SUNNY     63  37  38 N15G26    29.98R
DES MOINES     MOSUNNY   67  31  26 N16G23    29.96F

$$





USA.gov is the U.S. government's official web portal to all federal, state and local government web resources and services.